,,Stat6,,Stat2,,Stat8,,Stat9,,Stat10,,Wind1,,Wind1,
time,status,PA1M_AVG,status,PR1M_SUM,status,RH1M_AVG,status,SR1M_AVG,status,TA1M_AVG,status,W1dAve1m,status,W1sAve1m,
2005-04-19, 00:00:00,VALID,920.319,VALID,0,VALID,100,VALID,0.0169808,VALID,19.8321,VALID,113,VALID,0.297049,
2005-04-19, 00:01:00,VALID,920.32,VALID,0,VALID,100,VALID,0.0169808,VALID,19.8257,VALID,113,VALID,0.333594,
2005-04-19, 00:02:00,VALID,920.322,VALID,0,VALID,100,VALID,0.0169808,VALID,19.8388,VALID,113,VALID,0.321243,
2005-04-19, 00:03:00,VALID,920.317,VALID,0,VALID,100,VALID,0,VALID,19.8329,VALID,113,VALID,0.290777,
2005-04-19, 00:04:00,VALID,920.296,VALID,0,VALID,100,VALID,0,VALID,19.8135,VALID,113,VALID,0.238542,
2005-04-19, 00:05:00,VALID,920.275,VALID,0,VALID,100,VALID,0,VALID,19.7877,VALID,113,VALID,0.222834,
2005-04-19, 00:06:00,VALID,920.261,VALID,0,VALID,100,VALID,0,VALID,19.7777,VALID,113,VALID,0.235677,
2005-04-19, 00:07:00,VALID,920.226,VALID,0,VALID,100,VALID,0,VALID,19.7646,VALID,113,VALID,0.252544,
2005-04-19, 00:08:00,VALID,920.214,VALID,0,VALID,100,VALID,0,VALID,19.7616,VALID,113,VALID,0.205256,
2005-04-19, 00:09:00,VALID,920.188,VALID,0,VALID,100,VALID,0.0169808,VALID,19.781,VALID,113,VALID,0.216797,
2005-04-19, 00:10:00,VALID,920.171,VALID,0,VALID,100,VALID,0,VALID,19.778,VALID,113,VALID,0.500558,
2005-04-19, 00:11:00,VALID,920.13,VALID,0,VALID,100,VALID,0.0169808,VALID,19.7678,VALID,113,VALID,0.453303,
2005-04-19, 00:12:00,VALID,920.107,VALID,0,VALID,100,VALID,0,VALID,19.7616,VALID,114,VALID,0.530506,
2005-04-19, 00:13:00,VALID,920.081,VALID,0,VALID,100,VALID,0,VALID,19.778,VALID,114,VALID,0.492361,
2005-04-19, 00:14:00,VALID,920.069,VALID,0,VALID,100,VALID,0.0169808,VALID,19.8008,VALID,116,VALID,0.693109,
2005-04-19, 00:15:00,VALID,920.052,VALID,0,VALID,100,VALID,0,VALID,19.8165,VALID,123,VALID,0.588415,
2005-04-19, 00:16:00,VALID,920.026,VALID,0,VALID,100,VALID,0.0169808,VALID,19.8127,VALID,131,VALID,0.457031,
2005-04-19, 00:17:00,VALID,920.016,VALID,0,VALID,100,VALID,0.0169808,VALID,19.8227,VALID,107,VALID,0.652616,
2005-04-19, 00:18:00,VALID,919.985,VALID,0,VALID,100,VALID,0.0169808,VALID,19.8361,VALID,109,VALID,0.789971,
2005-04-19, 00:19:00,VALID,919.95,VALID,0,VALID,100,VALID,0,VALID,19.8291,VALID,110,VALID,0.782652,
2005-04-19, 00:20:00,VALID,919.925,VALID,0,VALID,100,VALID,-0.101885,VALID,19.8304,VALID,109,VALID,0.895597,
2005-04-19, 00:21:00,VALID,919.894,VALID,0,VALID,100,VALID,-0.0679233,VALID,19.8408,VALID,113,VALID,0.9871,
2005-04-19, 00:22:00,VALID,919.859,VALID,0,VALID,100,VALID,-0.0849042,VALID,19.8371,VALID,109,VALID,0.753729,
2005-04-19, 00:23:00,VALID,919.851,VALID,0,VALID,100,VALID,-0.101885,VALID,19.8403,VALID,112,VALID,0.826029,
2005-04-19, 00:24:00,VALID,919.825,VALID,0,VALID,100,VALID,-0.0849042,VALID,19.8468,VALID,138,VALID,0.489258,
2005-04-19, 00:25:00,VALID,919.812,VALID,0,VALID,100,VALID,-0.0849042,VALID,19.8371,VALID,127,VALID,0.642149,
2005-04-19, 00:26:00,VALID,919.806,VALID,0,VALID,100,VALID,-0.101885,VALID,19.8406,VALID,127,VALID,0.654861,
2005-04-19, 00:27:00,VALID,919.802,VALID,0,VALID,100,VALID,-0.0849042,VALID,19.8368,VALID,126,VALID,0.586846,
2005-04-19, 00:28:00,VALID,919.789,VALID,0,VALID,100,VALID,-0.0679233,VALID,19.8436,VALID,125,VALID,0.604539,
2005-04-19, 00:29:00,VALID,919.784,VALID,0,VALID,100,VALID,-0.101885,VALID,19.8567,VALID,112,VALID,0.627083,
2005-04-19, 00:30:00,VALID,919.765,VALID,0,VALID,100,VALID,-0.0849042,VALID,19.8465,VALID,103,VALID,0.564499,
2005-04-19, 00:31:00,VALID,919.766,VALID,0,VALID,100,VALID,-0.0849042,VALID,19.8403,VALID,106,VALID,0.589935,
2005-04-19, 00:32:00,VALID,919.747,VALID,0,VALID,100,VALID,-0.101885,VALID,19.8366,VALID,105,VALID,0.620617,
2005-04-19, 00:33:00,VALID,919.715,VALID,0,VALID,100,VALID,-0.0679233,VALID,19.8433,VALID,97,VALID,0.708651,
2005-04-19, 00:34:00,VALID,919.706,VALID,0,VALID,100,VALID,-0.0679233,VALID,19.8468,VALID,97,VALID,0.723611,
2005-04-19, 00:35:00,VALID,919.698,VALID,0,VALID,100,VALID,-0.0169808,VALID,19.8431,VALID,95,VALID,0.757986,
2005-04-19, 00:36:00,VALID,919.686,VALID,0,VALID,100,VALID,-0.0679233,VALID,19.8401,VALID,99,VALID,0.760831,
2005-04-19, 00:37:00,VALID,919.684,VALID,0,VALID,100,VALID,-0.0339617,VALID,19.8468,VALID,112,VALID,0.947409,
2005-04-19, 00:38:00,VALID,919.677,VALID,0,VALID,100,VALID,-0.101885,VALID,19.8498,VALID,111,VALID,0.877841,
2005-04-19, 00:39:00,VALID,919.667,VALID,0,VALID,100,VALID,-0.0849042,VALID,19.8562,VALID,106,VALID,0.841933,
2005-04-19, 00:40:00,VALID,919.642,VALID,0,VALID,100,VALID,-0.0509425,VALID,19.856,VALID,110,VALID,1.00945,
2005-04-19, 00:41:00,VALID,919.628,VALID,0,VALID,100,VALID,-0.0339617,VALID,19.8463,VALID,106,VALID,1.00178,
2005-04-19, 00:42:00,VALID,919.612,VALID,0,VALID,100,VALID,-0.0849042,VALID,19.8366,VALID,107,VALID,1.07722,
2005-04-19, 00:43:00,VALID,919.58,VALID,0,VALID,100,VALID,-0.0849042,VALID,19.8401,VALID,115,VALID,0.611683,
2005-04-19, 00:44:00,VALID,919.548,VALID,0,VALID,100,VALID,-0.0849042,VALID,19.8403,VALID,126,VALID,0.575817,
2005-04-19, 00:45:00,VALID,919.521,VALID,0,VALID,100,VALID,-0.101885,VALID,19.8334,VALID,132,VALID,0.663154,
2005-04-19, 00:46:00,VALID,919.508,VALID,0,VALID,100,VALID,-0.101885,VALID,19.8373,VALID,138,VALID,0.853609,
2005-04-19, 00:47:00,VALID,919.485,VALID,0,VALID,100,VALID,-0.0679233,VALID,19.8406,VALID,135,VALID,0.94184,
2005-04-19, 00:48:00,VALID,919.463,VALID,0,VALID,100,VALID,-0.101885,VALID,19.8341,VALID,135,VALID,0.920346,
2005-04-19, 00:49:00,VALID,919.436,VALID,0,VALID,100,VALID,-0.101885,VALID,19.8309,VALID,129,VALID,0.956771,
2005-04-19, 00:50:00,VALID,919.424,VALID,0,VALID,100,VALID,0,VALID,19.8366,VALID,132,VALID,0.873698,
2005-04-19, 00:51:00,VALID,919.405,VALID,0,VALID,100,VALID,0,VALID,19.8493,VALID,135,VALID,0.923177,
2005-04-19, 00:52:00,VALID,919.38,VALID,0,VALID,100,VALID,0,VALID,19.8398,VALID,135,VALID,0.7413,
2005-04-19, 00:53:00,VALID,919.356,VALID,0,VALID,100,VALID,0,VALID,19.8361,VALID,135,VALID,0.869141,
2005-04-19, 00:54:00,VALID,919.321,VALID,0,VALID,100,VALID,0,VALID,19.8493,VALID,138,VALID,0.836104,
2005-04-19, 00:55:00,VALID,919.31,VALID,0,VALID,100,VALID,-0.0169808,VALID,19.8495,VALID,138,VALID,0.595117,
2005-04-19, 00:56:00,VALID,919.287,VALID,0,VALID,100,VALID,0,VALID,19.8527,VALID,134,VALID,0.633523,
2005-04-19, 00:57:00,VALID,919.273,VALID,0,VALID,100,VALID,-0.0169808,VALID,19.849,VALID,130,VALID,0.55971,
2005-04-19, 00:58:00,VALID,919.279,VALID,0,VALID,100,VALID,0,VALID,19.8364,VALID,129,VALID,0.560594,
2005-04-19, 00:59:00,VALID,919.274,VALID,0,VALID,100,VALID,0.0169808,VALID,19.8229,VALID,127,VALID,0.553013,
2005-04-19, 01:00:00,VALID,919.281,VALID,0,VALID,100,VALID,-0.0169808,VALID,19.8364,VALID,114,VALID,0.723514,
2005-04-19, 01:01:00,VALID,919.277,VALID,0,VALID,100,VALID,0,VALID,19.8296,VALID,104,VALID,0.683771,
2005-04-19, 01:02:00,VALID,919.281,VALID,0,VALID,100,VALID,0,VALID,19.8364,VALID,101,VALID,0.746185,
2005-04-19, 01:03:00,VALID,919.264,VALID,0,VALID,100,VALID,0.0169808,VALID,19.8267,VALID,105,VALID,0.514266,
2005-04-19, 01:04:00,VALID,919.258,VALID,0,VALID,100,VALID,0,VALID,19.8229,VALID,112,VALID,0.749479,
2005-04-19, 01:05:00,VALID,919.261,VALID,0,VALID,100,VALID,0,VALID,19.8359,VALID,115,VALID,0.512153,
2005-04-19, 01:06:00,VALID,919.242,VALID,0,VALID,100,VALID,0,VALID,19.8393,VALID,130,VALID,0.687314,
2005-04-19, 01:07:00,VALID,919.235,VALID,0,VALID,100,VALID,0.0169808,VALID,19.8391,VALID,138,VALID,0.759993,
2005-04-19, 01:08:01,VALID,919.234,VALID,0,VALID,100,VALID,0,VALID,19.8326,VALID,138,VALID,0.95484,
2005-04-19, 01:09:00,VALID,919.222,VALID,0,VALID,100,VALID,0,VALID,19.8227,VALID,134,VALID,1.07617,
2005-04-19, 01:10:00,VALID,919.225,VALID,0,VALID,100,VALID,0,VALID,19.8423,VALID,130,VALID,0.868712,
2005-04-19, 01:11:00,VALID,919.202,VALID,0,VALID,100,VALID,0,VALID,19.8259,VALID,131,VALID,1.13467,
2005-04-19, 01:12:00,VALID,919.201,VALID,0,VALID,100,VALID,0.0169808,VALID,19.8359,VALID,135,VALID,0.673437,
2005-04-19, 01:13:00,VALID,919.184,VALID,0,VALID,100,VALID,0.0169808,VALID,19.8329,VALID,126,VALID,0.851181,
2005-04-19, 01:14:01,VALID,919.161,VALID,0,VALID,100,VALID,-0.0339617,VALID,19.8458,VALID,151,VALID,0.74638,
2005-04-19, 01:15:00,VALID,919.147,VALID,0,VALID,100,VALID,-0.0169808,VALID,19.8361,VALID,135,VALID,0.930618,
2005-04-19, 01:16:01,VALID,919.133,VALID,0,VALID,100,VALID,0,VALID,19.8192,VALID,146,VALID,0.808036,
2005-04-19, 01:17:00,VALID,919.113,VALID,0,VALID,100,VALID,0,VALID,19.8294,VALID,146,VALID,0.789595,
2005-04-19, 01:18:00,VALID,919.108,VALID,0,VALID,100,VALID,0,VALID,19.816,VALID,146,VALID,1.0377,
2005-04-19, 01:19:01,VALID,919.092,VALID,0,VALID,100,VALID,0.0169808,VALID,19.8135,VALID,154,VALID,0.74535,
2005-04-19, 01:20:00,VALID,919.063,VALID,0,VALID,100,VALID,0,VALID,19.8103,VALID,154,VALID,0.721657,
2005-04-19, 01:21:01,VALID,919.056,VALID,0,VALID,100,VALID,0,VALID,19.81,VALID,141,VALID,0.860709,
2005-04-19, 01:22:00,VALID,919.044,VALID,0,VALID,100,VALID,0,VALID,19.8103,VALID,160,VALID,0.625,
2005-04-19, 01:23:00,VALID,919.02,VALID,0,VALID,100,VALID,0,VALID,19.8135,VALID,158,VALID,0.752287,
2005-04-19, 01:24:00,VALID,919.008,VALID,0,VALID,100,VALID,0,VALID,19.8172,VALID,154,VALID,0.699591,
2005-04-19, 01:25:01,VALID,919.009,VALID,0,VALID,100,VALID,0,VALID,19.8135,VALID,164,VALID,0.388263,
2005-04-19, 01:26:00,VALID,919.01,VALID,0,VALID,100,VALID,-0.0169808,VALID,19.813,VALID,166,VALID,0.151708,
2005-04-19, 01:27:00,VALID,919.01,VALID,0,VALID,100,VALID,0,VALID,19.8259,VALID,166,VALID,0,
2005-04-19, 01:28:00,VALID,919.01,VALID,0,VALID,100,VALID,0,VALID,19.8329,VALID,166,VALID,0.0889863,
2005-04-19, 01:29:00,VALID,919.021,VALID,0,VALID,100,VALID,0,VALID,19.8359,VALID,167,VALID,0.16424,
2005-04-19, 01:30:00,VALID,919.03,VALID,0,VALID,100,VALID,0,VALID,19.8259,VALID,210,VALID,0.476389,
2005-04-19, 01:31:01,VALID,919.037,VALID,0,VALID,100,VALID,0.0169808,VALID,19.8426,VALID,233,VALID,0.0990189,
2005-04-19, 01:32:00,VALID,919.027,VALID,0,VALID,100,VALID,0,VALID,19.8232,VALID,233,VALID,0.0884811,
2005-04-19, 01:33:01,VALID,919.024,VALID,0,VALID,100,VALID,0,VALID,19.8232,VALID,233,VALID,0.0499637,
2005-04-19, 01:34:00,VALID,919.011,VALID,0,VALID,100,VALID,0,VALID,19.8232,VALID,233,VALID,0,
2005-04-19, 01:35:00,VALID,918.99,VALID,0,VALID,100,VALID,0.0169808,VALID,19.8127,VALID,233,VALID,0.00093006,
2005-04-19, 01:36:01,VALID,918.989,VALID,0,VALID,100,VALID,0,VALID,19.8165,VALID,233,VALID,0,
2005-04-19, 01:37:00,VALID,918.975,VALID,0,VALID,100,VALID,0,VALID,19.8103,VALID,233,VALID,0,
2005-04-19, 01:38:00,VALID,918.956,VALID,0,VALID,100,VALID,-0.0169808,VALID,19.814,VALID,233,VALID,0,
2005-04-19, 01:39:00,VALID,918.955,VALID,0,VALID,100,VALID,0.0169808,VALID,19.8065,VALID,233,VALID,0.0390625,
2005-04-19, 01:40:00,VALID,918.938,VALID,0,VALID,100,VALID,0.0509425,VALID,19.82,VALID,233,VALID,0.190341,
2005-04-19, 01:41:01,VALID,918.94,VALID,0,VALID,100,VALID,0,VALID,19.82,VALID,233,VALID,0.218006,
2005-04-19, 01:42:00,VALID,918.942,VALID,0,VALID,100,VALID,0,VALID,19.8068,VALID,233,VALID,0.0117188,
2005-04-19, 01:43:00,VALID,918.934,VALID,0,VALID,100,VALID,-0.0169808,VALID,19.8008,VALID,233,VALID,0,
2005-04-19, 01:44:01,VALID,918.941,VALID,0,VALID,100,VALID,0,VALID,19.8105,VALID,233,VALID,0,
2005-04-19, 01:45:00,VALID,918.933,VALID,0,VALID,100,VALID,-0.0339617,VALID,19.7911,VALID,233,VALID,0,
2005-04-19, 01:46:01,VALID,918.927,VALID,0,VALID,100,VALID,0,VALID,19.7944,VALID,233,VALID,0,
2005-04-19, 01:47:00,VALID,918.91,VALID,0,VALID,100,VALID,0.0169808,VALID,19.7844,VALID,233,VALID,0.102805,
2005-04-19, 01:48:01,VALID,918.892,VALID,0,VALID,100,VALID,0,VALID,19.7911,VALID,233,VALID,0.614099,
2005-04-19, 01:49:01,VALID,918.887,VALID,0,VALID,100,VALID,-0.0169808,VALID,19.7683,VALID,14,VALID,0.909784,
2005-04-19, 01:50:00,VALID,918.867,VALID,0,VALID,100,VALID,0,VALID,19.7395,VALID,60,VALID,0.843539,
2005-04-19, 01:51:00,VALID,918.855,VALID,0,VALID,100,VALID,0,VALID,19.7425,VALID,89,VALID,0.963844,
2005-04-19, 01:52:00,VALID,918.827,VALID,0,VALID,100,VALID,0.0509425,VALID,19.7484,VALID,96,VALID,0.823219,
2005-04-19, 01:53:00,VALID,918.791,VALID,0,VALID,100,VALID,0.0169808,VALID,19.7524,VALID,94,VALID,0.696378,
2005-04-19, 01:54:01,VALID,918.771,VALID,0,VALID,100,VALID,0,VALID,19.7459,VALID,86,VALID,0.822359,
2005-04-19, 01:55:01,VALID,918.749,VALID,0,VALID,100,VALID,0,VALID,19.7258,VALID,85,VALID,0.694111,
2005-04-19, 01:56:01,VALID,918.719,VALID,0,VALID,100,VALID,0.0169808,VALID,19.7223,VALID,92,VALID,0.596608,
2005-04-19, 01:57:00,VALID,918.705,VALID,0,VALID,100,VALID,0,VALID,19.7161,VALID,93,VALID,0.445499,
2005-04-19, 01:58:00,VALID,918.694,VALID,0,VALID,100,VALID,0.0169808,VALID,19.7164,VALID,106,VALID,0.462843,
2005-04-19, 01:59:01,VALID,918.678,VALID,0,VALID,100,VALID,0.0339617,VALID,19.7263,VALID,126,VALID,0.832201,
2005-04-19, 02:00:01,VALID,918.688,VALID,0,VALID,100,VALID,0,VALID,19.7256,VALID,146,VALID,0.586664,
2005-04-19, 02:01:00,VALID,918.702,VALID,0,VALID,100,VALID,0.0509425,VALID,19.7489,VALID,136,VALID,0.646763,
2005-04-19, 02:02:01,VALID,918.708,VALID,0,VALID,100,VALID,0,VALID,19.7387,VALID,110,VALID,0.483994,
2005-04-19, 02:03:00,VALID,918.704,VALID,0,VALID,100,VALID,0.0339617,VALID,19.7387,VALID,80,VALID,0.174851,
2005-04-19, 02:04:00,VALID,918.705,VALID,0,VALID,100,VALID,0,VALID,19.7363,VALID,81,VALID,0.0177083,
2005-04-19, 02:05:00,VALID,918.7,VALID,0,VALID,100,VALID,0,VALID,19.7129,VALID,81,VALID,0.212536,
2005-04-19, 02:06:01,VALID,918.698,VALID,0,VALID,100,VALID,0,VALID,19.7032,VALID,93,VALID,0.275981,
2005-04-19, 02:07:00,VALID,918.681,VALID,0,VALID,100,VALID,0,VALID,19.7139,VALID,104,VALID,0.376953,
2005-04-19, 02:08:01,VALID,918.668,VALID,0,VALID,100,VALID,0,VALID,19.6906,VALID,103,VALID,0.43099,
2005-04-19, 02:09:01,VALID,918.66,VALID,0,VALID,100,VALID,-0.0169808,VALID,19.6881,VALID,100,VALID,0.456944,
2005-04-19, 02:10:00,VALID,918.644,VALID,0,VALID,100,VALID,0,VALID,19.6622,VALID,97,VALID,0.668229,
2005-04-19, 02:11:00,VALID,918.637,VALID,0,VALID,100,VALID,0,VALID,19.6491,VALID,100,VALID,0.525799,
2005-04-19, 02:12:01,VALID,918.629,VALID,0,VALID,100,VALID,-0.0169808,VALID,19.6426,VALID,103,VALID,0.778472,
2005-04-19, 02:13:01,VALID,918.616,VALID,0,VALID,100,VALID,0,VALID,19.6493,VALID,111,VALID,0.87571,
2005-04-19, 02:14:01,VALID,918.613,VALID,0,VALID,100,VALID,0,VALID,19.6389,VALID,124,VALID,0.704055,
2005-04-19, 02:15:01,VALID,918.62,VALID,0,VALID,100,VALID,0,VALID,19.6456,VALID,114,VALID,0.727412,
2005-04-19, 02:16:00,VALID,918.613,VALID,0,VALID,100,VALID,0,VALID,19.6521,VALID,104,VALID,1.05316,
2005-04-19, 02:17:00,VALID,918.618,VALID,0,VALID,100,VALID,-0.0169808,VALID,19.6453,VALID,81,VALID,0.593564,
2005-04-19, 02:18:01,VALID,918.611,VALID,0,VALID,100,VALID,0.0169808,VALID,19.6518,VALID,91,VALID,0.732118,
2005-04-19, 02:19:01,VALID,918.617,VALID,0,VALID,100,VALID,0,VALID,19.6453,VALID,104,VALID,0.645241,
2005-04-19, 02:20:00,VALID,918.601,VALID,0,VALID,100,VALID,0.0169808,VALID,19.6456,VALID,104,VALID,0.461301,
2005-04-19, 02:21:00,VALID,918.593,VALID,0,VALID,100,VALID,0.0339617,VALID,19.6386,VALID,104,VALID,0.489955,
2005-04-19, 02:22:00,VALID,918.575,VALID,0,VALID,100,VALID,0,VALID,19.6389,VALID,105,VALID,0.247275,
2005-04-19, 02:23:01,VALID,918.548,VALID,0,VALID,100,VALID,0,VALID,19.6357,VALID,124,VALID,0.751488,
2005-04-19, 02:24:00,VALID,918.539,VALID,0,VALID,100,VALID,0.0169808,VALID,19.6359,VALID,136,VALID,0.654046,
2005-04-19, 02:25:00,VALID,918.525,VALID,0,VALID,100,VALID,0,VALID,19.6394,VALID,142,VALID,0.563033,
2005-04-19, 02:26:01,VALID,918.519,VALID,0,VALID,100,VALID,0,VALID,19.6426,VALID,141,VALID,0.663881,
2005-04-19, 02:27:00,VALID,918.518,VALID,0,VALID,100,VALID,0,VALID,19.6458,VALID,140,VALID,0.396875,
2005-04-19, 02:28:01,VALID,918.501,VALID,0,VALID,100,VALID,0,VALID,19.6332,VALID,140,VALID,0.292468,
2005-04-19, 02:29:01,VALID,918.495,VALID,0,VALID,100,VALID,0,VALID,19.6297,VALID,139,VALID,0.404154,
2005-04-19, 02:30:00,VALID,918.486,VALID,0,VALID,100,VALID,0,VALID,19.623,VALID,127,VALID,0.197359,
2005-04-19, 02:31:01,VALID,918.489,VALID,0,VALID,100,VALID,-0.0169808,VALID,19.6136,VALID,120,VALID,0.446987,
2005-04-19, 02:32:00,VALID,918.502,VALID,0,VALID,100,VALID,0,VALID,19.6073,VALID,115,VALID,0.517969,
2005-04-19, 02:33:00,VALID,918.505,VALID,0,VALID,100,VALID,0,VALID,19.6039,VALID,115,VALID,0.4913,
2005-04-19, 02:34:00,VALID,918.499,VALID,0,VALID,100,VALID,0,VALID,19.617,VALID,112,VALID,0.694222,
2005-04-19, 02:35:01,VALID,918.493,VALID,0,VALID,100,VALID,-0.101885,VALID,19.6145,VALID,109,VALID,0.539583,
2005-04-19, 02:36:01,VALID,918.486,VALID,0,VALID,100,VALID,-0.101885,VALID,19.6081,VALID,106,VALID,0.375572,
2005-04-19, 02:37:01,VALID,918.49,VALID,0,VALID,100,VALID,-0.101885,VALID,19.6024,VALID,106,VALID,0.477493,
2005-04-19, 02:38:00,VALID,918.471,VALID,0,VALID,100,VALID,-0.101885,VALID,19.586,VALID,106,VALID,0.489462,
2005-04-19, 02:39:01,VALID,918.463,VALID,0,VALID,100,VALID,-0.101885,VALID,19.5763,VALID,106,VALID,0.435268,
2005-04-19, 02:40:01,VALID,918.45,VALID,0,VALID,100,VALID,-0.0849042,VALID,19.5763,VALID,95,VALID,0.357067,
2005-04-19, 02:41:01,VALID,918.424,VALID,0,VALID,100,VALID,-0.118866,VALID,19.5696,VALID,86,VALID,0.283333,
2005-04-19, 02:42:00,VALID,918.407,VALID,0,VALID,100,VALID,-0.0849042,VALID,19.5731,VALID,86,VALID,0.190104,
2005-04-19, 02:43:01,VALID,918.385,VALID,0,VALID,100,VALID,-0.0849042,VALID,19.5636,VALID,86,VALID,0.193359,
2005-04-19, 02:44:00,VALID,918.375,VALID,0,VALID,100,VALID,-0.101885,VALID,19.5373,VALID,86,VALID,0.0182927,
2005-04-19, 02:45:00,VALID,918.365,VALID,0,VALID,100,VALID,-0.101885,VALID,19.5306,VALID,86,VALID,0,
2005-04-19, 02:46:00,VALID,918.365,VALID,0,VALID,100,VALID,-0.101885,VALID,19.5308,VALID,86,VALID,0,
2005-04-19, 02:47:00,VALID,918.362,VALID,0,VALID,100,VALID,-0.101885,VALID,19.5346,VALID,86,VALID,0.182292,
2005-04-19, 02:48:01,VALID,918.377,VALID,0,VALID,100,VALID,-0.101885,VALID,19.5085,VALID,86,VALID,0.319957,
2005-04-19, 02:49:00,VALID,918.372,VALID,0,VALID,100,VALID,-0.101885,VALID,19.4831,VALID,85,VALID,0.459121,
2005-04-19, 02:50:00,VALID,918.38,VALID,0,VALID,100,VALID,0.0169808,VALID,19.462,VALID,73,VALID,0.642969,
2005-04-19, 02:51:01,VALID,918.4,VALID,0,VALID,100,VALID,-0.0169808,VALID,19.4231,VALID,55,VALID,0.907227,
2005-04-19, 02:52:00,VALID,918.409,VALID,0,VALID,100,VALID,0,VALID,19.4101,VALID,46,VALID,1.07209,
2005-04-19, 02:53:00,VALID,918.421,VALID,0,VALID,100,VALID,0,VALID,19.4002,VALID,41,VALID,0.999023,
2005-04-19, 02:54:00,VALID,918.419,VALID,0,VALID,100,VALID,0,VALID,19.3873,VALID,33,VALID,0.987109,
2005-04-19, 02:55:01,VALID,918.417,VALID,0,VALID,100,VALID,0.0169808,VALID,19.3813,VALID,35,VALID,0.862282,
2005-04-19, 02:56:01,VALID,918.402,VALID,0,VALID,100,VALID,0.0169808,VALID,19.3575,VALID,38,VALID,0.888672,
2005-04-19, 02:57:01,VALID,918.407,VALID,0,VALID,100,VALID,0,VALID,19.3453,VALID,38,VALID,1.01962,
2005-04-19, 02:58:00,VALID,918.408,VALID,0,VALID,100,VALID,0.0169808,VALID,19.3453,VALID,40,VALID,1.11156,
2005-04-19, 02:59:01,VALID,918.422,VALID,0,VALID,100,VALID,0,VALID,19.3262,VALID,40,VALID,1.0125,
2005-04-19, 03:00:00,VALID,918.429,VALID,0,VALID,100,VALID,0.0169808,VALID,19.3163,VALID,40,VALID,0.900694,
2005-04-19, 03:01:00,VALID,918.432,VALID,0,VALID,100,VALID,0,VALID,19.3098,VALID,45,VALID,0.889648,
2005-04-19, 03:02:00,VALID,918.434,VALID,0,VALID,100,VALID,0,VALID,19.3451,VALID,61,VALID,0.793056,
2005-04-19, 03:03:01,VALID,918.444,VALID,0,VALID,100,VALID,0.0169808,VALID,19.3972,VALID,64,VALID,0.495508,
2005-04-19, 03:04:00,VALID,918.449,VALID,0,VALID,100,VALID,0,VALID,19.3967,VALID,65,VALID,0.456676,
2005-04-19, 03:05:01,VALID,918.445,VALID,0,VALID,100,VALID,0.0169808,VALID,19.3875,VALID,83,VALID,0.496701,
2005-04-19, 03:06:00,VALID,918.442,VALID,0,VALID,100,VALID,0.0339617,VALID,19.3682,VALID,109,VALID,0.609189,
2005-04-19, 03:07:01,VALID,918.439,VALID,0,VALID,100,VALID,0,VALID,19.352,VALID,136,VALID,0.614955,
2005-04-19, 03:08:00,VALID,918.419,VALID,0,VALID,100,VALID,0,VALID,19.352,VALID,137,VALID,1.0697,
2005-04-19, 03:09:01,VALID,918.406,VALID,0,VALID,100,VALID,-0.0169808,VALID,19.3843,VALID,133,VALID,0.737614,
2005-04-19, 03:10:01,VALID,918.4,VALID,0,VALID,100,VALID,0.0169808,VALID,19.4136,VALID,128,VALID,1.06117,
2005-04-19, 03:11:01,VALID,918.412,VALID,0,VALID,100,VALID,0,VALID,19.4298,VALID,126,VALID,0.869792,
2005-04-19, 03:12:01,VALID,918.389,VALID,0,VALID,100,VALID,0,VALID,19.439,VALID,118,VALID,0.759943,
2005-04-19, 03:13:01,VALID,918.399,VALID,0,VALID,100,VALID,0.0169808,VALID,19.4459,VALID,134,VALID,0.734375,
2005-04-19, 03:14:01,VALID,918.394,VALID,0,VALID,100,VALID,0,VALID,19.4521,VALID,133,VALID,0.774182,
2005-04-19, 03:15:01,VALID,918.393,VALID,0,VALID,100,VALID,0,VALID,19.462,VALID,129,VALID,0.991257,
2005-04-19, 03:16:01,VALID,918.378,VALID,0,VALID,100,VALID,0,VALID,19.4777,VALID,122,VALID,0.952778,
2005-04-19, 03:17:01,VALID,918.372,VALID,0,VALID,100,VALID,0,VALID,19.4782,VALID,117,VALID,0.592773,
2005-04-19, 03:18:01,VALID,918.376,VALID,0,VALID,100,VALID,0,VALID,19.4812,VALID,118,VALID,0.774346,
2005-04-19, 03:19:01,VALID,918.38,VALID,0,VALID,100,VALID,0,VALID,19.4804,VALID,126,VALID,0.93006,
2005-04-19, 03:20:01,VALID,918.385,VALID,0,VALID,100,VALID,0.0339617,VALID,19.4936,VALID,134,VALID,0.751562,
2005-04-19, 03:21:01,VALID,918.409,VALID,0,VALID,100,VALID,0,VALID,19.4971,VALID,138,VALID,0.374809,
2005-04-19, 03:22:01,VALID,918.42,VALID,0,VALID,100,VALID,0.0169808,VALID,19.4938,VALID,133,VALID,0.535352,
2005-04-19, 03:23:01,VALID,918.43,VALID,0,VALID,100,VALID,0.0169808,VALID,19.5003,VALID,127,VALID,0.615663,
2005-04-19, 03:24:01,VALID,918.423,VALID,0,VALID,100,VALID,0.0339617,VALID,19.5035,VALID,127,VALID,0.771129,
2005-04-19, 03:25:01,VALID,918.423,VALID,0,VALID,100,VALID,0,VALID,19.5068,VALID,138,VALID,0.880273,
2005-04-19, 03:26:01,VALID,918.42,VALID,0,VALID,100,VALID,0,VALID,19.5234,VALID,137,VALID,0.935594,
2005-04-19, 03:27:01,VALID,918.426,VALID,0,VALID,100,VALID,0,VALID,19.5234,VALID,131,VALID,0.969283,
2005-04-19, 03:28:01,VALID,918.416,VALID,0,VALID,100,VALID,0.0169808,VALID,19.5127,VALID,136,VALID,0.599382,
2005-04-19, 03:29:01,VALID,918.426,VALID,0,VALID,100,VALID,0.0169808,VALID,19.5328,VALID,122,VALID,1.05599,
2005-04-19, 03:30:01,VALID,918.426,VALID,0,VALID,100,VALID,0.0169808,VALID,19.5157,VALID,115,VALID,0.776786,
2005-04-19, 03:31:01,VALID,918.429,VALID,0,VALID,100,VALID,0.0169808,VALID,19.5398,VALID,109,VALID,0.634233,
2005-04-19, 03:32:01,VALID,918.439,VALID,0,VALID,100,VALID,0,VALID,19.5202,VALID,104,VALID,0.767773,
2005-04-19, 03:33:01,VALID,918.441,VALID,0,VALID,100,VALID,0,VALID,19.5172,VALID,95,VALID,0.77983,
2005-04-19, 03:34:01,VALID,918.443,VALID,0,VALID,100,VALID,0,VALID,19.5038,VALID,102,VALID,0.737393,
2005-04-19, 03:35:01,VALID,918.451,VALID,0,VALID,100,VALID,0,VALID,19.5073,VALID,111,VALID,0.786719,
2005-04-19, 03:36:01,VALID,918.439,VALID,0,VALID,100,VALID,0,VALID,19.507,VALID,119,VALID,0.736662,
2005-04-19, 03:37:01,VALID,918.439,VALID,0,VALID,100,VALID,0.0169808,VALID,19.5164,VALID,119,VALID,0.445685,
2005-04-19, 03:38:01,VALID,918.438,VALID,0,VALID,100,VALID,0,VALID,19.5095,VALID,119,VALID,0.452939,
2005-04-19, 03:39:01,VALID,918.437,VALID,0,VALID,100,VALID,0,VALID,19.5068,VALID,128,VALID,0.780297,
2005-04-19, 03:40:01,VALID,918.429,VALID,0,VALID,100,VALID,0,VALID,19.5197,VALID,138,VALID,0.774891,
2005-04-19, 03:41:01,VALID,918.428,VALID,0,VALID,100,VALID,0,VALID,19.4963,VALID,142,VALID,0.713118,
2005-04-19, 03:42:01,VALID,918.429,VALID,0,VALID,100,VALID,-0.0169808,VALID,19.5174,VALID,134,VALID,0.713034,
2005-04-19, 03:43:00,VALID,918.433,VALID,0,VALID,100,VALID,0,VALID,19.5167,VALID,125,VALID,0.878162,
2005-04-19, 03:44:00,VALID,918.43,VALID,0,VALID,100,VALID,0,VALID,19.51,VALID,125,VALID,0.943598,
2005-04-19, 03:45:00,VALID,918.429,VALID,0,VALID,100,VALID,0,VALID,19.5164,VALID,122,VALID,0.627841,